GFSNW_925_spd_015.txt.gz
Wind_Speed
3 6 9 4 12 15 10 5 5 2 4 6 4 5 6 1 8 3 3 2 4 6 4 3 3 5 5 3 4 4 6 2 2 4 4 3 3 4 4 2 3 3 4 8
3 5 8 6 11 15 7 3 4 2 4 4 3 5 6 3 7 3 4 3 1 4 5 4 6 5 4 4 4 6 5 1 3 5 6 4 4 1 2 1 2 10 7 6
3 5 7 8 5 11 4 3 3 4 5 3 9 9 9 7 2 4 4 6 6 8 6 4 7 7 4 2 5 4 2 1 3 5 8 6 8 9 9 10 7 11 12 17
2 5 7 7 3 7 3 2 2 1 6 5 8 9 10 10 5 3 6 4 4 7 4 6 5 7 6 3 3 1 3 2 4 9 11 11 12 13 14 15 15 14 16 17
2 4 7 7 4 5 2 2 3 2 3 6 9 5 10 12 5 8 7 7 8 6 6 2 6 5 3 2 4 1 2 1 3 4 7 11 15 17 18 16 11 13 14 13
1 4 5 7 5 2 2 2 1 3 2 8 8 7 9 9 9 2 3 10 8 9 9 10 10 8 5 4 2 3 1 0 2 4 10 13 6 3 3 7 8 8 10 12
2 3 5 6 5 3 2 2 2 3 4 7 8 8 8 12 6 8 8 6 8 6 9 10 9 9 5 2 2 2 4 1 2 3 5 3 6 11 14 10 9 10 9 9
3 2 4 5 7 4 4 3 1 3 3 5 6 10 13 10 11 13 11 6 6 9 2 2 2 1 3 1 4 3 2 3 2 2 5 14 12 4 6 9 13 11 6 9
4 2 3 5 5 6 5 4 3 2 6 4 9 10 13 11 7 6 4 5 4 2 2 2 2 3 1 5 6 4 4 2 3 3 3 4 3 2 4 6 11 5 7 14
4 3 2 4 5 5 4 3 3 1 3 3 6 6 10 5 9 5 6 6 3 2 2 1 3 3 2 4 3 4 3 2 5 6 5 8 8 3 4 5 3 10 10 10
5 3 2 3 3 3 5 2 4 3 3 5 1 2 6 4 6 5 8 5 2 2 2 3 3 1 4 3 2 5 7 6 4 4 4 6 3 6 3 7 15 8 3 3
6 4 2 2 3 3 4 2 6 8 3 4 4 4 4 4 7 3 9 0 6 5 3 3 2 2 0 0 3 5 4 7 4 8 5 9 6 10 6 5 6 3 1 6
6 5 3 2 2 2 4 3 2 3 3 3 4 4 4 4 4 2 3 2 3 4 3 4 3 3 5 5 6 6 6 9 6 8 7 12 12 9 5 5 1 4 3 11
8 6 4 2 2 2 3 2 1 3 5 4 3 1 3 3 2 1 3 8 6 7 4 3 3 3 7 4 7 7 7 7 9 13 17 13 8 6 8 4 2 5 8 6
9 8 6 3 2 4 5 4 3 3 3 3 2 2 1 2 0 3 3 9 5 3 2 2 3 3 2 2 2 8 10 15 10 10 10 2 5 4 6 4 6 2 5 8
11 9 8 6 5 4 2 3 1 1 3 3 3 3 2 1 3 5 6 8 2 4 4 3 4 5 4 4 4 6 7 8 12 9 4 2 2 3 5 3 1 4 8 12
15 11 9 7 6 2 2 1 2 4 2 2 2 2 2 1 4 2 3 1 1 3 3 4 4 5 4 3 7 9 9 4 2 3 4 3 6 2 2 1 4 7 12 16
18 14 11 9 7 3 3 2 4 6 4 2 2 2 1 4 2 2 1 2 2 3 2 1 3 1 1 4 8 8 5 3 3 3 2 4 8 5 4 4 9 11 12 17
21 17 15 12 7 5 3 5 5 1 1 2 3 6 4 5 2 2 2 2 2 2 1 2 3 3 6 8 8 7 7 5 5 7 8 7 2 2 5 8 10 12 13 16
25 20 6 2 6 11 14 3 2 2 2 1 4 3 4 5 3 2 3 1 2 3 2 3 2 3 5 3 3 3 6 7 9 8 5 2 3 5 7 9 11 13 15 17
6 3 1 4 16 4 3 3 3 2 2 3 2 4 5 2 3 3 1 2 3 3 3 3 3 3 7 10 8 9 11 10 6 5 3 1 4 6 8 9 12 13 14 16
9 13 7 4 2 2 4 3 3 4 4 2 3 2 2 2 1 3 2 3 2 3 4 2 3 3 9 12 12 11 11 9 5 1 2 5 6 8 8 11 13 14 15 19
10 7 3 1 1 2 6 7 3 3 4 3 3 3 2 2 2 2 2 4 3 1 2 3 3 8 9 11 11 11 10 6 1 4 6 7 9 8 9 12 15 16 16 16
2 2 3 2 2 1 2 3 3 3 3 4 4 3 1 1 2 2 3 2 2 3 3 4 2 6 10 9 8 9 7 6 2 7 9 8 9 11 13 18 18 18 17 18
2 1 2 2 2 3 3 2 1 2 3 2 3 3 1 2 3 1 3 3 3 4 2 3 2 7 8 8 7 6 3 3 5 8 9 11 14 14 14 13 14 13 20 21
2 2 2 1 1 2 2 3 2 2 2 2 2 2 1 2 1 2 3 2 4 1 1 2 6 6 5 5 3 5 8 9 11 12 13 12 13 15 15 15 18 19 16 17
2 2 2 2 2 3 1 0 2 2 1 1 2 2 2 2 2 2 2 3 2 1 3 3 5 6 5 4 6 8 10 12 13 14 13 14 14 14 13 13 15 12 14 16

GFSNW_925_spd_018.txt.gz
Wind_Speed
3 5 5 6 13 16 10 5 5 6 9 5 6 8 2 1 7 3 2 4 3 4 4 2 4 9 8 4 4 4 4 2 1 8 5 3 3 4 3 1 3 1 1 7
2 4 5 4 15 18 5 4 4 4 5 5 4 4 5 4 7 7 5 2 1 3 5 3 6 8 4 4 6 4 4 1 2 7 5 4 2 3 2 3 2 4 4 5
1 4 6 3 12 17 4 4 3 4 5 7 11 8 7 5 3 4 1 5 4 5 5 3 6 9 4 5 7 3 3 1 1 2 5 6 7 9 10 10 4 6 8 14
1 3 5 5 5 12 5 4 5 7 6 7 6 10 9 10 6 5 6 5 6 6 3 6 5 11 8 5 3 1 3 0 4 7 8 7 10 12 13 13 12 9 11 14
0 3 5 6 2 9 4 4 1 3 3 11 9 5 6 11 7 8 8 4 7 8 6 3 7 6 5 3 4 2 3 1 4 3 3 10 13 15 12 12 11 10 11 13
1 3 5 6 3 6 6 2 3 2 1 4 6 6 9 9 9 2 4 6 7 10 12 12 11 10 8 6 4 4 2 1 2 2 9 9 2 2 7 9 11 9 6 8
1 3 5 6 4 0 4 3 3 2 2 5 9 8 7 8 9 6 7 7 8 8 12 11 11 11 8 3 4 3 4 2 2 2 5 2 5 12 7 7 8 8 10 8
2 3 5 6 6 5 4 2 3 3 2 7 7 8 8 10 6 9 12 9 9 10 3 3 2 2 4 2 4 3 4 3 2 1 3 9 8 4 3 5 10 9 7 10
2 3 5 6 6 7 5 5 4 3 4 3 6 8 11 8 9 7 5 4 4 1 2 2 3 3 3 6 5 6 4 4 1 2 2 3 2 5 4 7 7 9 7 8
4 3 4 5 6 6 5 4 3 2 2 3 5 6 8 8 8 5 7 5 2 2 2 2 3 2 2 5 5 4 3 2 4 5 4 6 8 4 2 3 2 10 7 6
4 3 3 4 4 5 6 3 6 3 3 3 5 3 4 2 6 4 8 4 1 2 3 3 3 1 4 1 4 7 7 6 4 3 4 6 1 1 1 6 11 7 4 4
5 3 3 3 4 3 3 2 6 9 3 4 6 7 7 7 9 4 7 1 6 4 3 2 1 1 1 3 3 10 4 6 4 9 5 7 3 4 4 1 2 4 4 1
5 4 2 3 4 3 5 4 2 4 2 4 4 3 6 6 8 5 3 1 2 5 4 4 3 3 4 4 4 3 4 8 3 3 7 8 7 5 9 7 5 2 2 5
5 4 2 3 4 5 6 2 3 2 5 4 3 2 3 4 4 4 5 6 9 6 5 3 3 3 8 4 6 4 4 5 6 8 12 9 2 7 6 4 6 2 8 5
6 4 3 2 3 5 6 4 4 3 3 4 2 1 2 1 1 4 4 9 5 3 3 2 3 3 1 3 1 3 5 8 5 6 5 1 3 5 4 7 4 8 2 5
7 5 3 2 1 2 1 2 4 3 5 3 2 2 1 1 2 5 5 6 3 4 4 3 3 3 3 3 2 6 7 7 6 4 8 9 7 3 4 6 7 2 4 7
8 5 3 3 1 3 3 1 1 2 3 2 2 2 2 3 4 3 1 6 3 0 0 3 3 2 2 3 6 7 7 9 3 5 7 4 3 4 5 3 3 2 6 10
11 8 5 3 2 1 2 3 2 4 2 2 3 2 1 3 1 2 4 2 1 1 1 1 2 1 1 4 7 10 13 4 5 4 3 5 8 7 7 3 3 5 7 11
15 10 6 4 2 2 1 3 3 2 1 2 2 5 4 4 2 2 1 0 1 1 1 2 2 3 6 6 7 10 7 6 4 6 7 10 8 4 2 3 5 6 8 10
17 12 4 1 4 6 8 1 1 1 1 2 3 3 3 4 1 1 2 2 2 2 3 3 2 3 9 9 3 2 7 8 8 8 8 6 2 1 3 5 7 8 10 10
4 2 2 1 9 4 3 2 3 2 2 3 3 6 5 3 3 3 1 3 2 3 3 3 3 3 7 11 6 4 6 8 7 6 8 6 2 3 4 4 7 6 8 9
7 11 7 3 3 3 3 3 1 4 5 2 3 1 3 2 1 3 2 3 2 5 5 2 3 3 6 9 9 9 10 11 10 7 5 3 3 5 5 4 7 8 12 17
6 7 4 2 1 2 2 4 2 2 1 1 1 2 2 2 2 3 2 5 5 1 3 3 2 8 7 8 9 10 12 14 9 4 4 5 5 5 6 8 12 14 14 16
3 2 3 2 2 2 2 2 2 1 1 2 3 2 2 1 2 2 3 1 2 3 3 4 1 6 7 8 6 8 10 9 4 4 5 5 5 9 10 13 16 15 16 17
2 0 2 2 1 2 1 1 1 3 1 1 2 2 1 1 2 0 3 4 2 2 1 2 3 5 6 8 7 7 6 4 2 4 6 7 9 11 14 15 16 15 16 20
2 2 2 1 1 1 2 2 2 1 1 0 1 2 1 2 2 2 1 1 1 2 2 1 5 7 7 6 5 4 2 4 6 9 11 12 12 13 16 15 17 22 19 16
1 2 1 3 3 2 0 1 2 4 2 2 1 2 4 1 0 0 1 2 2 2 2 2 5 5 4 4 2 2 5 7 9 12 13 14 14 14 16 14 18 17 16 16

GFSNW_925_spd_021.txt.gz
Wind_Speed
1 4 5 5 12 15 13 2 1 7 9 3 3 3 3 1 3 3 2 3 5 3 5 5 5 4 4 8 6 3 3 4 3 3 2 2 0 3 4 4 3 1 4 5
1 3 4 4 15 20 6 2 3 3 2 3 2 5 3 1 5 4 1 5 6 5 4 5 9 5 5 7 5 2 3 2 3 4 4 4 1 4 4 5 3 5 5 5
1 2 3 2 15 21 1 1 2 2 1 2 4 4 3 2 5 3 4 5 3 3 4 4 4 4 2 4 3 3 2 2 5 5 3 1 2 5 4 6 3 3 6 7
2 2 3 1 9 13 6 1 4 7 3 4 4 5 8 6 2 2 2 1 3 4 3 4 5 5 4 2 1 2 3 3 4 4 5 4 3 5 7 5 5 4 7 4
2 2 4 4 5 11 5 1 2 2 4 5 4 5 6 8 8 6 4 3 6 7 4 2 6 8 5 4 5 4 4 1 2 1 6 7 4 7 8 8 2 3 5 4
2 3 4 5 5 11 5 5 6 4 5 3 4 3 0 1 7 3 4 4 11 14 6 9 6 8 5 6 5 3 3 4 3 2 4 5 4 4 5 4 3 3 3 1
3 3 5 5 5 4 2 3 3 4 2 1 4 6 5 8 6 6 7 8 7 4 6 6 8 11 12 9 7 5 4 3 3 2 4 2 5 2 5 6 4 6 8 9
3 4 5 6 5 5 4 4 3 3 1 1 4 3 3 9 13 7 11 8 5 8 6 4 5 5 7 5 6 5 4 4 3 3 1 6 5 3 4 4 3 6 6 6
4 5 6 7 6 6 6 7 4 4 5 4 7 2 9 6 4 4 4 5 10 6 3 4 4 4 5 3 2 7 7 6 4 2 4 6 6 5 5 1 3 4 6 6
5 5 6 7 6 6 5 5 4 2 3 3 5 2 6 6 5 4 4 1 3 5 3 2 2 3 2 5 7 3 3 1 5 3 3 7 8 5 4 5 6 2 6 5
5 5 6 7 6 7 6 6 7 3 3 3 7 7 5 4 5 5 4 4 4 3 3 3 3 2 4 2 7 7 7 7 4 3 3 7 7 4 8 6 4 6 6 4
5 5 6 6 6 6 5 5 9 9 6 3 6 11 12 8 2 5 4 6 4 5 4 1 3 1 0 1 3 4 2 7 6 8 6 7 4 6 4 4 6 4 6 5
6 5 6 7 7 7 10 7 7 5 3 3 3 3 6 5 11 6 4 2 5 4 3 3 3 3 3 4 5 1 3 6 3 4 6 6 6 6 6 7 7 7 5 5
6 5 5 7 8 9 7 6 6 6 6 4 3 2 4 5 6 6 6 8 9 8 4 3 3 3 5 4 4 4 5 3 1 3 3 4 8 9 8 8 7 5 5 4
6 5 4 6 7 8 10 9 8 7 4 4 2 2 3 4 3 5 8 15 5 3 3 2 3 3 2 1 2 2 3 5 3 5 4 4 4 6 8 7 5 6 4 5
6 5 4 4 4 5 4 2 4 5 6 4 1 1 4 4 1 4 3 3 2 3 4 3 3 3 4 3 3 5 5 6 4 4 4 8 8 6 7 6 7 6 7 6
7 5 4 4 4 6 6 3 1 3 4 3 2 2 4 5 3 5 4 7 2 2 2 1 2 2 3 2 4 6 7 6 8 11 9 5 5 4 8 7 10 8 13 15
8 5 5 5 6 5 3 5 3 4 6 5 3 2 3 3 2 2 5 2 3 3 2 2 1 2 2 3 6 8 9 5 8 7 6 5 7 6 7 7 12 8 7 9
10 7 5 4 3 2 2 3 2 3 3 3 2 4 3 2 2 1 3 2 1 2 1 1 2 2 5 6 6 6 5 7 10 7 8 8 6 4 7 7 8 7 5 6
12 7 3 1 1 3 3 1 3 4 3 2 2 2 2 3 1 1 2 2 2 2 3 2 1 3 5 8 1 3 6 10 11 8 8 6 7 7 7 7 8 6 2 4
6 3 1 2 6 2 4 0 2 1 2 1 2 4 4 1 3 2 2 2 1 2 4 5 3 3 5 4 5 5 6 8 11 15 13 12 9 6 6 5 4 2 4 6
7 12 7 4 4 2 3 3 1 1 2 3 1 1 2 1 1 3 2 4 2 5 3 2 3 3 4 10 9 8 14 17 16 18 13 14 12 7 5 2 2 4 8 13
7 6 4 2 3 1 3 5 1 1 1 1 0 1 1 2 3 2 2 5 5 1 3 3 3 3 5 6 11 11 17 21 18 14 12 8 4 2 2 5 7 9 12 14
3 2 3 2 2 2 2 1 1 1 1 1 2 2 2 1 2 2 3 1 2 2 3 3 1 5 4 5 7 10 6 11 9 4 2 2 3 7 8 9 10 12 13 14
3 2 3 2 1 1 0 0 1 3 1 2 2 2 1 1 2 1 2 1 1 1 1 1 2 2 8 8 9 8 6 5 3 1 2 5 8 10 11 11 12 13 14 15
3 3 3 2 2 1 1 2 1 1 0 1 1 2 1 2 1 1 0 2 1 2 1 2 2 4 5 6 6 8 7 3 2 5 7 8 9 11 13 14 14 18 20 21
2 2 2 1 3 3 1 1 0 2 1 1 1 2 1 0 1 1 2 2 1 2 1 1 4 4 4 5 6 4 4 5 7 8 9 11 12 12 13 15 22 21 20 19

GFSNW_925_spd_024.txt.gz
Wind_Speed
8 5 6 13 17 18 14 4 3 3 6 3 1 2 4 3 3 5 4 3 3 5 4 4 3 3 2 5 1 3 2 5 3 1 3 2 2 3 4 4 2 2 3 4
8 6 6 14 19 21 8 4 3 3 1 3 2 4 3 2 2 1 2 3 4 4 4 6 3 3 2 8 4 2 2 2 3 6 6 5 3 1 5 6 3 5 5 5
8 6 6 13 20 20 5 3 3 3 3 1 6 2 2 2 3 2 4 3 5 5 5 6 5 2 4 4 3 2 2 3 5 6 4 3 3 2 4 5 3 3 6 6
9 7 6 11 18 23 2 2 4 6 4 3 3 3 5 3 2 2 3 4 3 4 3 3 4 3 2 4 3 3 3 3 1 2 4 2 1 2 2 4 5 5 6 6
9 7 7 10 16 18 4 3 3 2 3 5 5 5 6 8 3 3 0 2 4 5 4 5 7 6 3 4 2 2 3 1 2 1 5 6 3 5 5 4 3 4 6 3
10 8 8 10 19 18 3 3 1 5 3 5 4 4 6 8 8 3 4 10 7 9 4 5 5 4 5 6 6 2 3 4 3 3 4 5 5 6 3 1 3 4 5 5
10 9 9 10 17 14 4 2 3 4 1 3 6 3 2 6 2 7 3 5 6 4 6 2 6 11 10 10 8 4 4 4 3 2 3 1 5 5 5 6 3 8 9 7
10 9 9 9 9 10 7 2 3 3 1 1 2 3 9 8 7 6 5 6 1 7 6 5 5 5 6 4 6 7 4 5 3 3 3 5 2 4 5 6 5 6 9 8
10 9 9 9 8 9 8 7 6 5 5 3 3 5 7 6 4 5 4 5 5 7 3 4 4 4 4 2 1 6 6 6 4 3 4 6 5 3 6 5 4 7 8 8
9 9 9 9 8 7 7 7 6 5 4 2 3 4 5 6 5 4 2 1 4 4 2 3 3 4 4 5 6 4 2 3 5 2 2 7 7 4 4 5 7 7 8 7
9 9 9 9 8 7 8 9 7 3 3 3 4 4 4 3 3 5 4 4 4 3 4 3 4 3 5 2 5 6 7 7 4 3 2 8 7 4 7 6 4 6 6 6
9 10 10 9 8 6 7 6 9 10 5 3 6 11 11 4 4 6 1 6 4 5 4 2 3 1 1 2 3 3 2 7 5 9 6 5 6 5 4 7 6 7 7 5
9 10 10 10 9 8 9 10 6 6 3 4 4 3 7 8 9 3 5 2 5 4 3 4 2 3 4 4 5 4 4 5 3 3 5 8 6 2 3 3 5 6 5 6
9 9 10 10 11 9 8 8 7 7 5 4 3 3 4 8 8 7 3 10 9 8 3 3 3 3 4 3 3 4 5 4 5 4 3 3 3 2 6 6 7 7 7 6
9 9 9 9 11 12 12 14 12 7 5 4 2 1 5 7 8 10 13 18 6 3 3 2 3 2 2 1 2 3 4 7 4 6 6 4 5 7 7 7 6 6 6 8
9 8 8 8 9 11 3 3 6 7 4 4 1 4 5 9 7 11 8 6 3 3 3 3 2 3 3 3 4 7 5 5 5 5 3 2 7 8 7 6 6 7 10 14
10 9 8 8 7 5 6 4 2 4 4 3 2 3 4 5 4 4 3 6 2 3 2 1 3 2 3 3 5 6 7 6 3 8 10 4 4 5 8 9 11 19 18 16
10 10 10 10 11 10 7 8 7 5 9 5 3 2 4 4 2 2 4 2 3 3 2 1 2 2 2 3 8 6 7 3 7 8 2 5 7 9 7 17 16 9 7 8
11 11 10 6 4 4 2 5 5 8 5 4 2 4 4 2 2 1 3 2 1 2 1 1 3 1 5 7 5 5 5 7 9 7 7 9 10 11 10 10 7 8 5 4
11 5 5 2 3 2 3 3 4 5 3 3 2 2 1 3 1 2 2 2 1 1 3 2 2 4 5 7 6 5 6 8 12 12 8 9 10 10 6 7 7 8 5 3
3 3 1 1 3 2 4 2 2 0 2 2 0 3 3 1 3 2 2 2 1 3 4 4 3 3 4 6 1 2 6 10 9 12 14 12 10 8 7 5 7 4 2 2
8 12 7 3 5 3 3 1 1 2 3 2 1 1 1 0 2 3 1 3 1 5 2 1 2 2 4 6 9 10 13 18 17 20 16 14 13 10 7 5 2 2 3 6
7 5 4 2 3 2 4 6 1 2 1 1 1 1 1 2 3 2 2 5 4 1 2 2 2 2 6 8 9 11 15 21 17 15 15 12 7 4 1 2 4 5 8 11
3 3 3 1 2 2 1 1 2 1 1 1 2 2 2 1 2 1 3 1 1 2 2 3 1 4 4 4 2 8 5 9 10 9 8 5 1 2 4 6 8 10 12 13
3 3 3 2 2 1 1 1 1 2 1 1 2 2 1 1 2 1 2 1 1 0 2 2 1 4 3 3 4 6 6 6 7 4 3 4 5 7 9 11 11 12 15 16
3 3 3 1 3 2 2 1 1 1 0 1 1 2 2 1 1 1 1 3 3 1 1 2 2 3 4 4 3 5 5 5 4 4 4 6 8 10 11 13 14 15 17 18
3 2 2 2 3 2 1 1 1 3 1 1 1 2 2 1 1 1 2 2 2 2 2 2 4 4 4 5 4 2 2 4 5 6 7 8 10 10 11 12 17 17 18 20

GFSNW_925_spd_027.txt.gz
Wind_Speed
16 14 15 21 25 25 17 5 3 2 4 4 1 3 4 4 2 6 4 4 3 5 4 4 3 4 1 4 1 2 2 5 3 1 5 3 1 3 4 4 2 1 3 5
16 14 16 24 27 27 10 4 2 2 1 4 1 4 4 1 2 3 2 2 2 2 5 6 2 3 1 4 3 4 2 2 3 6 6 5 1 2 5 6 3 4 4 5
15 14 17 26 30 26 8 4 3 3 3 1 7 3 3 1 4 3 3 3 5 5 5 6 5 3 2 1 3 2 4 3 5 6 4 3 3 3 4 5 3 3 6 4
15 13 17 26 30 21 7 2 4 5 4 2 4 4 2 3 2 2 4 4 2 4 4 3 4 2 2 4 2 3 4 3 2 3 4 2 1 4 6 6 5 6 5 7
15 14 17 25 30 20 4 4 4 3 2 6 6 3 5 6 2 3 0 5 3 2 6 6 7 6 3 3 3 3 4 1 1 1 5 6 3 5 6 5 4 7 3 5
14 12 18 25 29 21 4 3 2 5 3 4 6 5 6 8 6 4 4 8 5 4 2 3 4 4 5 5 5 3 3 4 3 3 4 4 6 9 9 5 4 7 6 8
13 12 17 25 30 24 5 4 4 4 1 3 6 7 3 6 4 7 3 5 6 3 6 4 6 11 11 11 8 3 5 4 2 2 3 2 6 3 4 5 3 3 2 7
13 13 16 22 30 20 4 5 3 4 2 1 3 8 6 7 6 5 3 4 0 8 5 5 5 5 6 5 7 6 3 5 3 3 3 5 4 4 6 7 7 7 7 6
13 13 15 18 22 19 8 5 4 4 6 2 3 5 5 6 4 4 3 5 7 6 3 4 4 4 4 2 1 5 5 6 4 3 4 6 5 3 5 4 5 9 8 8
14 14 14 14 16 16 11 5 4 5 4 2 1 3 6 6 5 4 2 3 2 3 2 3 3 3 3 4 5 3 2 3 5 2 3 8 7 4 3 5 7 7 10 9
14 14 13 14 14 14 9 8 5 3 3 2 3 3 4 4 3 5 5 4 4 3 4 3 3 3 5 2 4 6 7 7 4 3 1 8 7 2 8 6 1 7 7 8
14 13 13 12 13 15 11 7 13 13 6 3 5 11 12 4 5 6 2 4 4 5 4 1 3 2 2 2 3 2 2 7 5 9 6 4 6 4 4 6 6 6 7 5
14 13 13 12 11 9 9 13 7 8 4 4 4 3 6 15 5 4 5 2 5 3 2 4 3 3 4 4 6 3 4 4 3 2 4 8 8 4 2 5 4 5 5 7
14 13 13 12 12 12 13 10 8 10 5 4 4 6 4 11 7 4 3 11 8 7 3 3 3 3 4 3 3 4 5 5 5 5 7 4 5 6 5 5 7 7 7 6
14 13 13 13 13 14 18 19 15 8 5 4 2 2 8 12 9 13 14 18 6 3 2 2 3 2 3 0 2 3 5 7 4 6 7 5 5 6 7 8 7 8 8 5
13 12 11 12 14 12 5 4 9 9 5 4 2 3 5 12 13 16 12 7 4 3 3 2 2 2 3 4 4 7 5 5 6 5 4 4 1 6 6 7 7 8 9 15
13 12 10 8 6 4 8 4 2 5 5 3 3 3 4 5 5 4 3 6 2 2 2 1 2 1 3 3 4 7 8 8 6 4 6 3 3 5 6 8 11 19 17 16
14 14 15 17 16 13 8 11 8 7 10 4 4 2 3 6 2 2 4 2 2 4 2 1 2 1 2 3 9 4 5 4 3 7 3 4 7 7 7 17 18 11 9 8
14 14 12 6 5 4 3 6 8 13 7 3 2 4 3 3 2 1 3 2 2 2 1 1 2 1 4 4 3 4 3 3 4 3 3 6 8 10 12 13 10 9 5 5
12 5 5 3 3 2 3 2 4 5 3 3 2 1 1 2 1 2 2 2 1 1 3 1 1 3 4 5 7 7 7 6 8 6 5 7 10 11 11 7 4 6 6 5
3 3 1 2 3 2 4 3 3 1 2 2 1 1 3 2 3 2 1 2 0 2 3 2 2 2 4 8 8 7 7 10 11 13 15 16 15 11 6 4 3 3 3 3
7 12 7 3 4 3 5 1 1 2 2 2 1 0 1 0 2 3 1 2 1 4 2 1 2 2 5 7 11 13 17 21 19 23 18 16 10 8 7 3 4 3 2 1
6 6 4 2 3 3 5 6 1 2 1 2 1 1 1 2 3 3 2 3 4 1 2 2 1 3 7 9 9 11 17 17 13 11 11 12 7 4 3 3 2 2 5 6
3 2 3 2 2 2 2 2 2 1 1 1 2 2 2 1 2 1 3 1 1 3 2 2 1 4 1 3 4 5 5 8 9 8 7 4 2 2 3 4 5 6 8 10
3 2 3 2 1 2 1 1 2 1 1 1 2 2 1 1 2 1 2 1 1 1 1 1 2 4 4 6 7 5 4 5 6 5 4 3 3 4 7 8 8 9 12 14
3 3 3 1 2 2 1 2 2 0 1 1 1 2 2 1 1 2 2 3 1 2 1 1 2 4 4 5 3 1 5 6 5 5 5 7 8 8 9 11 11 11 12 13
3 2 2 2 3 2 1 1 0 1 1 1 1 3 2 1 2 2 2 1 1 1 2 1 1 2 4 7 5 3 3 4 6 7 8 9 9 10 11 11 13 13 15 17

GFSNW_925_spd_030.txt.gz
Wind_Speed
30 26 23 23 27 29 18 5 3 2 6 4 1 4 5 3 2 3 3 4 3 5 3 4 3 4 1 3 1 3 1 5 2 2 2 2 2 3 5 4 3 1 3 5
30 26 24 24 29 34 9 4 3 3 3 4 1 2 2 3 2 3 2 3 2 3 4 5 2 3 1 2 2 6 5 1 3 6 5 4 2 3 4 5 3 5 5 5
29 26 25 27 33 33 5 4 3 3 3 1 7 5 3 2 2 3 4 4 4 4 4 6 5 3 1 1 2 5 6 3 5 7 4 2 4 4 4 5 3 4 6 4
28 26 26 31 35 32 5 2 3 4 3 1 4 4 4 4 2 2 5 4 3 5 4 3 3 2 2 4 1 3 3 4 2 1 3 1 2 5 6 7 5 6 5 7
26 25 26 33 35 27 3 4 4 3 1 6 6 3 5 6 3 3 2 5 1 2 5 6 8 6 4 4 3 3 3 2 1 2 4 5 3 5 6 5 3 7 3 9
25 23 26 34 36 22 4 2 4 5 4 3 6 6 6 7 6 3 3 6 5 4 1 3 4 5 7 5 5 3 3 5 3 4 4 5 6 9 11 6 5 7 7 9
22 22 26 33 37 25 3 4 5 4 2 3 6 7 3 5 4 7 2 4 5 1 6 6 6 10 11 11 8 3 5 4 3 2 3 2 6 2 4 9 5 8 2 4
19 21 27 33 38 26 4 6 4 4 2 2 3 6 6 7 5 4 3 4 2 8 4 5 5 5 6 5 7 7 3 5 3 4 3 6 5 5 7 8 7 8 7 4
17 19 25 32 36 28 7 6 7 4 6 4 4 5 4 5 4 3 3 4 5 6 3 4 4 4 4 2 1 4 5 6 4 3 3 6 6 3 3 3 5 7 8 8
18 18 20 28 34 25 9 5 5 5 4 1 2 4 6 5 5 4 4 5 1 3 3 3 3 3 2 3 5 3 3 3 5 2 3 8 7 3 1 5 7 5 8 7
18 17 18 25 30 22 16 5 3 3 3 2 3 3 5 3 3 5 5 4 3 3 4 3 3 3 5 2 4 6 7 6 4 3 2 7 6 4 7 6 1 6 7 8
18 16 17 22 27 23 21 6 12 14 6 3 7 13 11 2 5 6 1 4 4 5 4 1 3 2 2 2 3 1 2 6 5 9 6 4 6 4 3 2 3 5 6 6
17 15 17 20 21 19 15 15 9 10 4 4 4 3 6 14 3 4 5 2 5 3 2 4 3 3 4 4 5 3 4 4 3 2 4 7 9 6 6 5 6 4 4 5
17 16 17 18 16 14 18 11 8 10 4 4 3 6 5 12 4 3 2 11 8 7 3 3 3 3 4 3 3 3 4 4 4 5 9 5 9 8 6 5 4 4 4 5
18 18 18 19 20 21 24 23 16 9 6 4 2 1 9 14 9 14 15 17 6 3 2 2 3 3 4 1 2 3 5 7 4 6 8 4 6 4 4 7 7 7 7 6
17 18 21 20 17 12 6 4 12 11 6 4 2 3 5 12 14 19 12 7 4 3 3 2 1 2 3 4 3 8 3 4 4 5 1 5 3 4 2 5 5 4 7 9
14 15 14 12 9 9 9 5 2 6 6 3 3 3 4 7 5 4 3 6 3 3 2 2 2 1 3 3 4 4 4 6 5 4 4 3 4 3 5 7 12 18 19 17
20 22 22 21 19 15 12 17 10 8 11 4 4 2 3 8 2 2 3 2 2 4 2 1 2 2 2 3 4 7 7 7 4 5 2 3 1 6 8 14 17 14 12 13
16 15 14 7 8 5 3 6 11 16 9 3 3 4 3 3 2 1 3 2 2 2 1 1 3 1 3 4 10 9 7 5 7 2 5 7 10 11 11 13 14 14 9 6
12 5 6 3 4 4 4 3 4 5 4 3 3 1 2 2 1 2 2 2 1 1 1 1 2 1 3 9 7 7 9 7 2 3 5 8 12 12 13 12 9 7 5 5
4 4 2 2 5 3 4 3 4 2 3 3 1 1 3 2 2 2 1 2 1 2 3 2 1 2 4 8 11 11 15 18 17 18 17 17 12 11 10 7 7 6 7 3
7 13 7 3 5 3 6 2 1 3 2 2 2 0 1 1 2 3 0 2 1 3 1 1 1 2 5 6 9 10 15 18 18 21 16 15 13 8 7 6 4 4 2 1
6 5 4 3 3 5 3 4 1 2 0 1 1 2 1 1 3 3 2 3 3 1 1 1 2 4 4 4 6 6 8 10 13 12 11 9 6 3 3 2 2 3 3 4
4 4 4 2 2 2 1 1 2 1 1 1 2 2 2 1 3 1 2 1 1 3 2 1 1 1 5 3 4 4 4 7 7 6 4 4 3 3 4 4 4 5 7 9
3 3 3 3 2 2 2 2 2 2 1 1 2 2 2 2 2 2 3 2 1 2 3 0 1 4 4 5 3 4 4 3 4 5 5 5 5 5 7 7 7 8 10 11
3 3 3 1 2 1 2 2 2 1 1 1 2 2 2 1 2 2 2 3 3 2 2 2 2 4 3 4 3 3 3 6 5 6 6 7 7 8 9 12 12 11 12 14
3 2 2 2 3 3 2 1 1 1 1 1 2 3 3 2 2 1 1 3 3 2 1 2 4 5 5 6 5 2 4 5 6 7 9 11 13 14 17 16 19 21 21 21

GFSNW_925_spd_036.txt.gz
Wind_Speed
26 29 37 41 38 33 30 12 9 15 25 9 9 12 9 4 7 5 6 7 7 12 11 7 8 10 2 4 4 5 2 1 4 6 3 1 3 6 9 4 4 1 2 3
32 36 22 39 40 42 26 9 5 4 7 12 10 7 5 5 6 9 9 7 6 5 9 6 5 6 2 3 5 7 6 3 4 5 5 5 7 9 5 4 1 6 3 2
30 39 32 44 42 44 26 9 7 4 6 4 16 13 12 8 2 5 4 5 4 7 6 1 7 8 2 2 2 3 3 3 7 10 2 0 6 11 12 11 4 5 9 10
39 34 42 48 45 48 16 7 7 10 12 10 13 15 15 11 7 4 6 4 8 8 5 6 6 6 6 3 5 2 3 6 4 2 0 3 5 8 13 16 14 8 12 11
36 30 45 46 45 48 13 8 5 4 14 12 13 11 11 15 6 5 7 8 10 7 5 7 10 10 7 5 6 5 2 3 3 3 3 3 7 10 11 15 16 15 19 20
35 44 44 44 46 36 10 4 3 9 4 10 11 11 11 14 10 3 3 12 8 6 4 5 8 7 8 5 7 6 4 6 4 2 2 3 6 16 18 13 13 15 14 16
38 44 43 42 44 39 12 5 5 6 6 10 12 12 8 14 7 7 4 3 4 5 16 16 14 14 12 10 9 3 5 5 2 1 1 3 1 1 3 13 17 15 17 13
41 39 40 40 42 40 6 7 4 4 4 10 10 12 7 10 7 6 6 4 3 14 3 4 4 2 2 5 7 5 1 4 3 2 4 6 12 3 3 4 6 5 11 11
37 37 37 37 43 42 5 7 7 3 7 8 11 11 12 7 5 5 4 6 10 2 2 2 4 4 3 4 4 3 4 3 1 3 3 3 3 3 1 2 5 6 3 4
34 34 34 37 48 42 7 5 8 3 4 4 7 10 10 5 5 5 6 8 3 1 2 2 2 3 1 5 5 4 2 1 4 3 4 6 1 2 2 3 3 6 4 6
30 32 33 37 50 46 7 7 6 2 3 4 1 2 5 5 6 6 8 6 2 2 2 2 3 2 4 3 2 4 5 6 3 3 3 4 5 6 3 4 4 5 4 5
29 31 33 39 48 42 9 6 12 14 6 4 6 10 7 3 3 6 11 1 6 5 4 1 3 2 1 1 3 3 3 3 1 6 1 3 6 5 3 4 8 7 6 5
29 31 34 41 48 35 4 12 14 9 4 4 4 4 5 8 4 0 4 2 4 4 3 4 2 3 3 4 4 3 4 4 3 1 2 6 8 8 9 9 11 11 11 10
28 31 36 42 47 26 11 11 12 9 4 4 3 4 4 10 3 0 1 9 9 7 2 3 3 3 3 2 1 2 2 7 4 4 9 6 2 3 6 10 9 9 7 6
28 32 36 41 40 20 16 18 8 4 1 4 4 3 9 12 8 10 11 14 8 3 3 2 2 3 4 1 0 1 1 3 2 2 6 4 7 10 10 10 10 9 6 3
28 34 37 42 32 27 11 4 2 6 5 4 3 2 4 9 12 16 13 7 5 3 3 3 3 2 1 3 4 4 5 5 6 5 11 9 8 6 11 9 8 8 9 10
32 37 37 33 28 19 6 4 2 7 5 3 4 3 3 6 5 4 4 7 4 3 3 3 3 2 2 3 3 6 8 8 4 9 9 2 12 6 10 12 16 20 22 21
30 30 28 25 21 20 10 11 5 6 5 3 4 2 2 8 3 2 4 2 2 5 3 2 2 2 1 2 5 7 9 10 4 9 7 7 8 11 13 17 18 17 15 15
24 22 19 11 8 4 4 2 10 14 6 3 3 4 3 3 2 2 2 2 3 0 2 2 2 2 1 2 5 7 8 7 3 8 11 12 13 13 14 15 12 11 8 7
12 10 8 3 3 4 3 3 3 5 5 5 3 1 3 0 1 2 1 2 2 2 2 1 2 2 4 2 1 2 5 8 9 7 9 11 12 11 9 9 10 10 8 4
5 3 2 2 3 2 3 3 4 2 3 3 2 2 3 2 2 2 2 2 1 3 3 3 3 3 3 1 4 5 8 10 13 15 14 15 13 10 8 5 4 3 4 6
7 12 8 3 4 3 6 2 1 4 2 1 2 2 3 2 1 3 1 3 1 3 3 2 4 4 5 5 6 9 11 12 13 13 12 10 9 7 6 5 5 6 5 6
5 6 5 4 4 6 2 4 1 2 1 1 2 3 1 2 2 3 2 3 2 5 2 2 2 7 7 8 8 9 8 7 8 8 7 6 7 7 7 6 7 8 7 8
4 4 5 4 2 3 2 3 3 1 1 2 3 3 2 1 3 1 3 2 3 4 4 3 5 7 10 9 6 7 6 4 6 8 8 8 8 8 10 11 11 11 10 9
4 3 3 3 2 2 2 1 2 2 1 1 3 3 2 2 2 1 3 4 3 1 2 4 6 10 10 9 7 7 6 5 6 7 8 9 8 8 9 11 11 11 11 13
3 4 3 2 2 2 2 3 2 2 1 0 2 2 2 2 2 3 2 3 2 3 3 4 7 10 7 6 7 6 7 7 8 8 8 9 10 9 7 6 10 12 10 12
3 3 3 2 4 3 2 2 2 3 1 2 1 2 2 2 2 3 0 2 3 6 6 5 8 9 6 8 7 7 8 8 9 10 9 7 6 5 7 10 13 13 11 12

GFSNW_925_spd_039.txt.gz
Wind_Speed
33 31 27 31 36 40 36 20 11 28 37 10 8 16 22 20 12 11 10 8 13 14 14 12 12 16 12 11 7 11 4 4 7 10 5 5 10 8 9 5 6 4 4 5
31 30 27 28 42 48 34 13 7 19 27 13 14 20 21 21 15 13 13 12 12 12 11 11 12 11 6 4 7 6 6 7 9 7 6 7 8 9 8 8 2 9 4 3
28 29 27 28 48 49 34 11 10 4 9 15 20 24 21 19 12 13 15 15 12 10 12 11 10 9 4 5 4 3 1 11 9 10 9 5 12 12 11 12 8 10 12 13
29 30 27 38 39 49 28 9 13 13 16 19 14 23 18 22 13 10 12 12 15 14 11 14 8 10 7 6 5 5 4 10 12 14 5 7 9 9 10 16 17 15 12 15
32 33 30 41 33 48 12 6 14 16 19 21 19 21 23 24 19 16 16 15 17 15 10 11 11 12 10 8 9 8 5 6 3 6 9 9 12 14 14 15 16 17 19 18
33 33 31 42 48 37 11 15 15 15 19 24 17 17 22 24 16 3 9 17 16 12 3 7 9 6 2 4 8 11 6 4 4 5 3 5 6 15 18 18 17 14 16 16
37 32 34 46 45 52 28 18 9 14 15 19 20 22 22 19 16 10 3 8 10 6 13 14 12 11 9 7 5 3 5 7 2 1 1 1 3 1 4 7 12 14 13 14
31 40 43 41 45 51 34 18 6 6 6 19 22 24 18 12 10 13 11 6 5 15 8 4 5 2 3 3 3 3 4 5 2 3 6 9 12 5 1 1 5 10 8 10
37 37 36 36 47 47 43 20 14 8 8 15 21 17 18 11 9 7 5 11 7 3 2 2 5 5 6 5 6 3 3 1 4 3 3 4 4 4 1 1 4 8 9 8
47 40 48 50 45 43 43 12 12 9 8 15 18 15 13 13 11 6 6 7 4 3 2 2 3 4 2 6 5 4 3 1 6 5 3 6 5 2 2 4 4 9 9 9
38 38 37 38 41 38 40 11 10 4 5 7 1 3 14 5 10 6 9 7 2 3 3 3 3 2 4 2 3 6 6 7 3 3 3 5 5 6 1 5 6 7 9 8
34 32 35 37 37 38 48 9 2 13 6 6 9 10 8 4 6 4 12 2 11 6 4 1 2 2 1 1 3 3 4 4 1 6 1 5 3 4 3 6 8 8 10 9
31 33 34 35 36 39 37 4 4 9 4 5 5 5 6 8 5 3 4 2 4 4 3 4 2 3 4 3 4 3 3 2 2 1 4 0 3 3 3 9 9 11 10 10
30 30 31 31 35 45 29 4 1 8 5 4 4 3 3 7 1 3 1 9 7 8 4 3 3 3 3 3 1 3 3 5 4 5 6 5 6 7 10 11 9 9 10 7
30 29 29 32 34 39 19 2 5 9 3 4 6 10 9 6 5 6 9 13 9 4 3 2 2 3 3 2 0 3 1 2 2 1 5 4 7 11 10 9 10 10 9 9
28 30 31 34 36 38 18 3 4 6 5 5 4 3 6 9 12 12 9 5 3 2 3 3 3 2 2 4 4 4 4 2 3 3 7 4 7 11 11 12 13 13 14 15
29 32 34 37 40 10 2 2 6 11 8 3 4 4 3 3 4 3 4 6 3 2 3 3 2 3 2 3 4 5 1 2 1 5 7 9 10 7 11 15 15 20 21 21
32 35 37 38 22 8 6 9 11 7 1 1 4 3 3 5 3 3 3 2 2 5 3 2 2 3 1 3 5 2 5 4 7 6 8 9 11 12 11 13 15 14 12 11
40 38 30 19 2 3 4 7 11 5 3 2 3 5 4 1 3 2 2 2 3 1 2 2 3 2 2 4 4 4 6 3 5 10 10 10 10 11 12 12 11 12 8 7
34 21 4 3 3 9 6 2 3 2 3 4 3 1 4 0 2 2 2 2 3 3 2 3 2 2 5 4 3 3 2 2 10 10 9 10 11 10 9 9 9 7 7 8
4 3 3 3 7 7 4 2 2 2 3 3 2 3 5 1 2 3 2 3 2 3 3 3 3 3 4 4 5 5 5 8 8 14 13 14 12 10 7 6 6 6 7 8
7 13 8 4 1 3 5 2 2 2 2 1 2 3 3 2 1 3 2 3 2 3 5 2 3 4 8 8 10 10 12 15 15 15 13 12 10 8 7 7 7 7 6 8
5 4 4 3 4 4 3 5 2 3 1 1 2 3 2 3 3 3 2 3 2 5 2 2 2 8 6 10 11 12 12 12 12 11 10 10 11 10 9 8 8 7 8 9
5 5 5 2 3 3 2 3 3 2 1 3 4 3 2 1 3 1 4 1 3 4 4 3 5 8 9 11 10 11 10 5 8 10 10 9 9 10 12 13 10 11 10 10
5 5 4 4 2 3 2 1 2 2 0 1 3 3 2 3 3 2 3 3 3 3 1 3 7 12 12 11 10 10 8 5 8 10 10 9 8 8 9 9 10 10 9 10
3 5 3 2 2 2 2 3 3 3 2 1 2 3 2 3 2 3 3 3 2 3 3 5 9 10 10 11 9 10 10 10 9 9 10 9 8 7 6 6 8 8 6 8
3 3 3 2 4 3 2 3 2 4 2 2 1 2 3 2 2 2 2 3 3 5 6 6 7 10 10 11 12 11 10 10 10 9 8 8 6 6 5 5 8 10 8 9

GFSNW_925_spd_042.txt.gz
Wind_Speed
36 40 38 34 31 27 35 7 7 31 39 11 11 15 22 22 17 15 12 10 16 15 14 13 14 14 13 7 8 9 13 5 4 12 3 5 9 11 9 3 6 2 1 6
33 42 41 37 32 36 26 5 7 33 35 12 14 18 25 26 23 18 14 15 13 12 13 10 14 10 6 8 8 3 4 4 5 9 6 8 8 12 9 8 2 4 3 3
34 45 40 40 33 38 25 5 9 5 11 12 21 23 22 26 24 20 14 15 14 12 14 9 9 9 3 3 1 3 3 5 9 6 11 5 6 11 11 10 3 4 9 14
34 44 43 39 34 38 27 4 9 7 12 18 19 21 21 25 23 20 17 16 17 12 8 11 11 11 7 4 3 2 3 8 12 14 14 7 9 12 8 11 10 10 11 15
32 39 40 37 32 34 24 7 6 12 7 19 21 20 27 27 24 20 20 16 18 13 11 12 10 11 8 7 7 8 5 6 4 8 9 13 11 15 15 15 15 14 14 14
33 36 35 35 30 34 8 17 11 10 14 21 19 21 25 25 19 19 19 17 14 16 7 5 10 2 11 7 10 9 7 3 2 2 6 7 5 10 16 16 15 13 11 10
35 35 32 34 28 39 9 24 7 6 13 18 24 26 24 26 22 9 14 13 18 8 13 14 13 12 8 7 4 7 6 5 3 1 1 1 8 4 5 5 8 9 9 12
33 32 31 32 25 42 33 15 5 3 9 19 25 25 25 26 13 9 10 2 10 15 9 4 4 2 3 1 3 3 4 4 2 3 4 7 12 1 3 2 5 11 10 10
32 32 33 33 28 40 41 30 25 4 8 19 32 25 26 11 7 7 8 11 6 3 3 2 4 4 5 7 6 0 1 5 3 3 2 4 1 5 3 2 2 8 9 9
33 33 35 33 30 45 38 28 32 6 9 16 28 18 15 11 7 1 7 7 3 3 3 2 2 3 3 6 6 4 2 0 4 3 1 5 6 5 1 2 3 5 6 8
33 34 30 31 42 45 36 34 33 20 9 14 15 9 15 14 10 10 10 6 2 3 3 3 2 2 3 2 7 7 6 6 3 2 2 5 6 5 2 4 5 7 7 8
36 38 36 37 41 38 37 24 37 42 9 7 18 13 14 10 12 7 8 6 9 5 4 2 3 2 2 2 2 6 4 4 4 7 3 6 4 5 5 6 5 7 8 8
35 37 39 39 37 36 46 36 34 10 5 5 5 4 11 14 14 9 3 1 6 5 3 4 2 3 3 3 3 4 4 4 2 2 4 7 4 9 12 10 8 8 8 10
38 40 39 36 38 37 37 25 26 13 4 4 5 4 5 9 8 2 6 10 8 7 5 3 3 3 4 2 1 3 3 6 4 4 3 3 13 13 10 8 10 10 9 14
36 35 34 31 30 29 30 34 30 13 3 4 4 8 10 4 4 5 7 10 9 3 3 3 2 3 4 2 1 1 3 1 3 1 7 4 12 10 10 11 11 11 11 14
33 29 27 28 28 25 12 3 4 13 8 5 3 1 5 7 9 9 8 5 4 3 3 2 3 3 1 3 3 5 7 6 5 4 4 9 12 13 14 13 13 14 15 17
28 27 24 23 25 25 4 4 5 7 4 3 3 3 2 4 8 4 4 6 3 3 3 2 3 2 2 3 2 10 6 5 7 4 5 8 6 10 11 15 15 16 16 15
28 28 30 32 28 14 1 4 0 5 5 4 3 1 3 4 2 2 4 2 3 5 3 2 2 2 2 2 9 9 5 9 8 9 12 13 13 13 12 14 14 12 11 11
33 39 38 22 2 0 4 9 15 16 10 2 2 4 4 2 3 2 2 2 3 2 2 2 3 2 2 6 9 9 5 5 11 11 11 11 13 12 12 12 12 11 6 6
47 40 7 3 3 13 5 1 2 3 3 4 2 1 3 1 2 1 2 2 3 2 1 2 2 3 8 6 6 5 5 9 11 11 10 11 12 11 10 10 10 11 10 12
14 3 3 5 9 1 3 3 3 2 2 3 1 3 5 2 3 3 2 2 1 3 3 4 3 3 5 6 6 5 5 10 5 10 11 12 12 9 8 8 12 11 12 10
8 16 10 3 2 4 5 3 1 2 2 1 1 3 3 1 1 3 2 3 2 3 5 2 3 4 10 8 9 10 10 13 13 18 14 15 13 11 12 12 11 10 13 12
7 6 4 3 4 4 3 3 1 3 1 1 1 3 2 3 3 3 3 3 2 4 1 2 2 9 8 10 9 11 14 15 16 16 16 16 15 15 14 12 11 12 13 12
5 4 6 2 3 3 3 2 2 1 1 2 3 2 2 1 3 1 4 1 3 3 4 3 4 9 10 10 9 12 11 6 11 14 15 15 15 15 16 14 12 12 11 10
5 4 4 4 2 2 1 1 2 3 2 1 2 2 2 2 3 2 3 3 3 3 1 3 6 10 9 10 11 11 7 6 11 13 12 12 14 13 13 12 11 10 12 13
3 5 2 2 2 3 3 4 3 4 3 2 1 2 3 3 2 2 2 4 2 3 2 5 9 9 9 9 10 11 12 13 15 14 13 12 13 11 10 11 11 8 11 11
4 4 3 3 4 3 2 3 3 3 2 2 0 2 4 2 1 2 3 3 2 4 4 4 8 10 10 10 13 15 14 15 14 13 12 11 10 9 8 8 10 8 7 10